Location: Beddau
(51.5575°N, 3.3561°W)
Time: 18:00:45
(UTC+00:00)

Cosmos 2369 Rocket - Pass Details

Date: 03 March 2021
Orbit: 829 x 852 km, 71.0° (Epoch: 12 April)

Event Time Altitude Azimuth Distance (km) Brightness Sun altitude
Rises 21:26:56 0° 331° (NNW) 3,384 6.2 -31.9°
Reaches altitude 10° 21:29:40 10° 341° (NNW) 2,448 5.2 -32.2°
Enters shadow 21:32:57 26° 13° (NNE) 1,574 3.7 -32.7°
